Location: Sumpter
(44.7457°N, 118.2022°W)
Time: 13:09:23
(UTC-08:00)

ISS - Visible Passes

Search period start: 22 November 2019 00:00
Search period end: 02 December 2019 00:00
Orbit: 412 x 421 km, 51.6° (Epoch: 23 November)

Date Brightness Start Highest point End Pass type
(mag) Time Alt. Az. Time Alt. Az. Time Alt. Az.
22 Nov -1.7 17:10:48 10° S 17:12:49 15° SE 17:14:30 11° E visible
22 Nov -1.6 18:45:48 10° WSW 18:47:25 26° WSW 18:47:25 26° WSW visible
23 Nov -3.8 17:57:26 10° SW 18:00:44 62° SE 18:01:07 56° ESE visible
24 Nov -2.9 17:09:16 10° SSW 17:12:22 37° SE 17:14:46 15° ENE visible
24 Nov -1.6 18:45:54 10° W 18:47:40 26° WNW 18:47:40 26° WNW visible
25 Nov -3.4 17:57:16 10° WSW 18:00:35 58° NNW 18:01:15 46° NNE visible
26 Nov -3.8 17:08:44 10° WSW 17:12:05 88° NNW 17:14:46 15° ENE visible
26 Nov -1.3 18:46:11 10° WNW 18:47:40 20° NW 18:47:40 20° NW visible
27 Nov -2.7 17:57:26 10° W 18:00:32 33° NNW 18:01:08 31° N visible
28 Nov -3.0 17:08:43 10° W 17:11:56 43° NNW 17:14:34 14° NE visible
28 Nov -1.1 18:46:26 10° WNW 18:47:27 16° NW 18:47:27 16° NW visible
29 Nov -2.3 17:57:42 10° WNW 18:00:33 25° N 18:00:52 25° N visible
30 Nov -2.4 17:08:55 10° WNW 17:11:53 28° NNW 17:14:16 14° NE visible
30 Nov -1.0 18:46:24 10° NW 18:47:09 15° NW 18:47:09 15° NW visible
01 Dec -2.2 17:57:46 10° NW 18:00:33 24° N 18:00:33 24° N visible
